^^
Saratoga-Weather Station Historical Data
Daily Summary for March 1, 2020 Units:  Metric    English   Both
Daily Weekly Monthly Yearly Custom
  High: Low: Average:
Temperature: 3.9 °C 0.7 °C 1.9 °C
Dew Point: 3.2 °C -0.3 °C 1.1 °C
Humidity: 96% 93% 95%
Wind Speed: 19.5km/h 0km/h 5.9km/h
Wind Gust: 25.7km/h - -
Wind- - West
Pressure: 1019.6 hPa 1014.9 hPa -
Precipitation: 0.5 mm    
Historical Graphs
 
 
Tabular Data for March 1, 2020
Time Temperature Dew Point Pressure Wind Wind Speed Wind Gust Humidity Rainfall Rate (Hourly) solar
00:01 0.7 °C -0.3 °C 1019.6 hPa North 1.4 km/h 3.2 km/h 93% 0.0 mm 0 W/m2
00:06 0.7 °C -0.3 °C 1019.6 hPa Calm   1.6 km/h 93% 0.0 mm 0 W/m2
00:11 0.7 °C -0.3 °C 1019.3 hPa ESE 3.2 km/h 4.8 km/h 93% 0.0 mm 0 W/m2
00:16 0.7 °C -0.3 °C 1019.3 hPa Calm   3.2 km/h 93% 0.0 mm 0 W/m2
00:21 0.7 °C -0.3 °C 1019.0 hPa NNE 3.2 km/h 3.2 km/h 93% 0.0 mm 0 W/m2
00:26 0.7 °C -0.3 °C 1019.0 hPa NNE 1.4 km/h 1.6 km/h 93% 0.0 mm 0 W/m2
00:31 0.7 °C -0.3 °C 1019.0 hPa Calm   3.2 km/h 93% 0.0 mm 0 W/m2
00:36 0.8 °C -0.2 °C 1018.6 hPa North 1.4 km/h 3.2 km/h 93% 0.0 mm 0 W/m2
00:41 0.8 °C -0.2 °C 1018.6 hPa Calm   1.6 km/h 93% 0.0 mm 0 W/m2
00:46 0.8 °C -0.2 °C 1018.6 hPa Calm   1.6 km/h 93% 0.0 mm 0 W/m2
00:51 0.8 °C -0.2 °C 1018.6 hPa NNE 1.4 km/h 4.8 km/h 93% 0.0 mm 0 W/m2
00:56 0.9 °C -0.1 °C 1018.3 hPa NE 1.4 km/h 3.2 km/h 93% 0.0 mm 0 W/m2
01:01 0.9 °C 0 °C 1018.3 hPa North 1.4 km/h 4.8 km/h 94% 0.0 mm 0 W/m2
01:06 0.9 °C 0 °C 1018.6 hPa Calm   3.2 km/h 94% 0.0 mm 0 W/m2
01:11 0.9 °C 0 °C 1018.3 hPa Calm     94% 0.0 mm 0 W/m2
01:16 0.9 °C 0 °C 1018.3 hPa West 1.4 km/h 8 km/h 94% 0.0 mm 0 W/m2
01:21 0.9 °C 0 °C 1018.3 hPa NW 1.4 km/h 3.2 km/h 94% 0.0 mm 0 W/m2
01:26 1 °C 0.1 °C 1018.0 hPa Calm   4.8 km/h 94% 0.0 mm 0 W/m2
01:31 1 °C 0.1 °C 1018.0 hPa NNW 1.4 km/h 6.4 km/h 94% 0.0 mm 0 W/m2
01:36 1.1 °C 0.2 °C 1018.0 hPa West 1.4 km/h 3.2 km/h 94% 0.0 mm 0 W/m2
01:41 1.1 °C 0.2 °C 1018.0 hPa NW 3.2 km/h 8 km/h 94% 0.0 mm 0 W/m2
01:46 1.1 °C 0.2 °C 1017.6 hPa WNW 3.2 km/h 3.2 km/h 94% 0.0 mm 0 W/m2
01:51 1.2 °C 0.3 °C 1017.6 hPa NNW 3.2 km/h 3.2 km/h 94% 0.0 mm 0 W/m2
01:56 1.2 °C 0.3 °C 1017.3 hPa NW 3.2 km/h 6.4 km/h 94% 0.0 mm 0 W/m2
02:01 1.2 °C 0.3 °C 1017.3 hPa North 4.7 km/h 4.8 km/h 94% 0.0 mm 0 W/m2
02:06 1.2 °C 0.3 °C 1017.3 hPa NW 1.4 km/h 3.2 km/h 94% 0.0 mm 0 W/m2
02:11 1.3 °C 0.4 °C 1017.3 hPa WNW 1.4 km/h 8 km/h 94% 0.0 mm 0 W/m2
02:16 1.3 °C 0.4 °C 1016.9 hPa North 3.2 km/h 4.8 km/h 94% 0.0 mm 0 W/m2
02:21 1.3 °C 0.4 °C 1016.9 hPa NNW 3.2 km/h 4.8 km/h 94% 0.0 mm 0 W/m2
02:26 1.3 °C 0.4 °C 1016.9 hPa North 1.4 km/h 6.4 km/h 94% 0.0 mm 0 W/m2
02:32 1.3 °C 0.4 °C 1016.9 hPa SSW 3.2 km/h 11.3 km/h 94% 0.0 mm 0 W/m2
02:37 1.3 °C 0.4 °C 1016.9 hPa Calm   3.2 km/h 94% 0.0 mm 0 W/m2
02:42 1.3 °C 0.4 °C 1016.9 hPa NNW 1.4 km/h 6.4 km/h 94% 0.0 mm 0 W/m2
02:47 1.3 °C 0.4 °C 1016.9 hPa Calm   4.8 km/h 94% 0.0 mm 0 W/m2
02:52 1.3 °C 0.4 °C 1016.6 hPa WSW 1.4 km/h 6.4 km/h 94% 0.0 mm 0 W/m2
02:57 1.3 °C 0.4 °C 1016.6 hPa Calm   3.2 km/h 94% 0.0 mm 0 W/m2
03:02 1.3 °C 0.4 °C 1016.6 hPa NE 1.4 km/h 3.2 km/h 94% 0.0 mm 0 W/m2
03:07 1.3 °C 0.4 °C 1016.6 hPa WNW 1.4 km/h 4.8 km/h 94% 0.0 mm 0 W/m2
03:12 1.3 °C 0.4 °C 1016.6 hPa Calm   4.8 km/h 94% 0.0 mm 0 W/m2
03:17 1.4 °C 0.5 °C 1016.6 hPa Calm   3.2 km/h 94% 0.0 mm 0 W/m2
03:22 1.4 °C 0.5 °C 1016.6 hPa West 3.2 km/h 6.4 km/h 94% 0.0 mm 0 W/m2
03:27 1.4 °C 0.5 °C 1016.6 hPa WNW 1.4 km/h 4.8 km/h 94% 0.0 mm 0 W/m2
03:32 1.4 °C 0.5 °C 1016.3 hPa NNW 1.4 km/h 3.2 km/h 94% 0.0 mm 0 W/m2
03:37 1.4 °C 0.5 °C 1016.3 hPa West 1.4 km/h 3.2 km/h 94% 0.0 mm 0 W/m2
03:42 1.4 °C 0.7 °C 1016.3 hPa Calm   16.1 km/h 95% 0.0 mm 0 W/m2
03:47 1.4 °C 0.7 °C 1016.3 hPa West 4.7 km/h 6.4 km/h 95% 0.0 mm 0 W/m2
03:52 1.4 °C 0.7 °C 1016.3 hPa WNW 6.4 km/h 12.9 km/h 95% 0.0 mm 0 W/m2
03:57 1.4 °C 0.7 °C 1015.9 hPa WNW 6.4 km/h 6.4 km/h 95% 0.0 mm 0 W/m2
04:02 1.5 °C 0.8 °C 1015.9 hPa NNW 7.9 km/h 12.9 km/h 95% 0.0 mm 0 W/m2
04:07 1.5 °C 0.8 °C 1015.9 hPa West 6.4 km/h 12.9 km/h 95% 0.0 mm 0 W/m2
04:12 1.5 °C 0.8 °C 1015.9 hPa West 4.7 km/h 11.3 km/h 95% 0.0 mm 0 W/m2
04:17 1.6 °C 0.9 °C 1015.6 hPa West 17.7 km/h 17.7 km/h 95% 0.0 mm 0 W/m2
04:22 1.6 °C 0.9 °C 1015.6 hPa West 9.7 km/h 17.7 km/h 95% 0.0 mm 0 W/m2
04:27 1.6 °C 0.9 °C 1015.2 hPa WSW 3.2 km/h 24.1 km/h 95% 0.0 mm 0 W/m2
04:32 1.6 °C 0.9 °C 1015.6 hPa West 11.1 km/h 19.3 km/h 95% 0.0 mm 0 W/m2
04:37 1.6 °C 0.9 °C 1015.6 hPa West 13 km/h 24.1 km/h 95% 0.0 mm 0 W/m2
04:42 1.6 °C 0.9 °C 1015.6 hPa NW 14.3 km/h 14.5 km/h 95% 0.0 mm 0 W/m2
04:47 1.6 °C 0.9 °C 1015.6 hPa WNW 6.4 km/h 9.7 km/h 95% 0.0 mm 0 W/m2
04:52 1.7 °C 1 °C 1015.6 hPa NW 3.2 km/h 6.4 km/h 95% 0.0 mm 0 W/m2
04:57 1.7 °C 1 °C 1015.6 hPa WNW 1.4 km/h 11.3 km/h 95% 0.0 mm 0 W/m2
05:02 1.7 °C 1 °C 1015.6 hPa WNW 4.7 km/h 12.9 km/h 95% 0.0 mm 0 W/m2
05:07 1.7 °C 1 °C 1015.6 hPa NW 4.7 km/h 12.9 km/h 95% 0.0 mm 0 W/m2
05:12 1.7 °C 1 °C 1015.6 hPa Calm   4.8 km/h 95% 0.0 mm 0 W/m2
05:17 1.7 °C 1 °C 1015.2 hPa NW 1.4 km/h 12.9 km/h 95% 0.0 mm 0 W/m2
05:22 1.7 °C 1 °C 1015.2 hPa WSW 6.4 km/h 16.1 km/h 95% 0.5 mm 0 W/m2
05:27 1.7 °C 1 °C 1015.2 hPa NW 4.7 km/h 11.3 km/h 95% 0.5 mm 0 W/m2
05:32 1.7 °C 1 °C 1015.2 hPa Calm   16.1 km/h 95% 0.5 mm 0 W/m2
05:37 1.7 °C 1 °C 1015.2 hPa WNW 4.7 km/h 9.7 km/h 95% 0.5 mm 0 W/m2
05:42 1.7 °C 1 °C 1015.2 hPa WNW 6.4 km/h 14.5 km/h 95% 0.5 mm 0 W/m2
05:47 1.8 °C 1.1 °C 1015.2 hPa WNW 3.2 km/h 16.1 km/h 95% 0.5 mm 0 W/m2
05:52 1.8 °C 1.1 °C 1015.2 hPa West 9.7 km/h 12.9 km/h 95% 0.5 mm 0 W/m2
05:57 1.8 °C 1.1 °C 1015.2 hPa WNW 6.4 km/h 19.3 km/h 95% 0.5 mm 0 W/m2
06:02 1.9 °C 1.3 °C 1014.9 hPa NW 13 km/h 17.7 km/h 96% 0.5 mm 0 W/m2
06:07 2 °C 1.4 °C 1015.2 hPa WSW 9.7 km/h 16.1 km/h 96% 0.5 mm 0 W/m2
06:12 2.1 °C 1.5 °C 1015.2 hPa NW 3.2 km/h 14.5 km/h 96% 0.5 mm 0 W/m2
06:17 2.1 °C 1.5 °C 1015.2 hPa WSW 7.9 km/h 24.1 km/h 96% 0.5 mm 0 W/m2
06:22 2.1 °C 1.5 °C 1015.2 hPa West 13 km/h 16.1 km/h 96% 0.0 mm 0 W/m2
06:27 2.1 °C 1.5 °C 1015.2 hPa WNW 13 km/h 24.1 km/h 96% 0.0 mm 0 W/m2
06:32 2.2 °C 1.6 °C 1015.2 hPa WSW 6.4 km/h 16.1 km/h 96% 0.0 mm 0 W/m2
06:37 2.2 °C 1.6 °C 1015.2 hPa West 3.2 km/h 17.7 km/h 96% 0.0 mm 0 W/m2
06:42 2.3 °C 1.7 °C 1014.9 hPa West 9.7 km/h 12.9 km/h 96% 0.0 mm 0 W/m2
06:47 2.3 °C 1.7 °C 1014.9 hPa WNW 7.9 km/h 11.3 km/h 96% 0.0 mm 0 W/m2
06:52 2.3 °C 1.7 °C 1014.9 hPa South 11.1 km/h 16.1 km/h 96% 0.0 mm 0 W/m2
06:57 2.4 °C 1.8 °C 1015.2 hPa NNW 3.2 km/h 17.7 km/h 96% 0.0 mm 0 W/m2
07:02 2.5 °C 1.9 °C 1015.2 hPa WNW 3.2 km/h 17.7 km/h 96% 0.0 mm 0 W/m2
07:07 2.4 °C 1.8 °C 1015.2 hPa NW 4.7 km/h 12.9 km/h 96% 0.0 mm 0 W/m2
07:12 2.4 °C 1.8 °C 1015.2 hPa WSW 11.1 km/h 14.5 km/h 96% 0.0 mm 0 W/m2
07:17 2.4 °C 1.8 °C 1015.2 hPa West 6.4 km/h 12.9 km/h 96% 0.0 mm 0 W/m2
07:22 2.4 °C 1.8 °C 1015.2 hPa SW 11.1 km/h 16.1 km/h 96% 0.0 mm 0 W/m2
07:27 2.4 °C 1.8 °C 1015.2 hPa WNW 11.1 km/h 12.9 km/h 96% 0.0 mm 0 W/m2
07:32 2.4 °C 1.8 °C 1015.2 hPa WNW 16.3 km/h 17.7 km/h 96% 0.0 mm 0 W/m2
07:37 2.5 °C 1.9 °C 1015.2 hPa WNW 14.3 km/h 16.1 km/h 96% 0.0 mm 0 W/m2
07:42 2.6 °C 2 °C 1015.2 hPa NNW 13 km/h 19.3 km/h 96% 0.0 mm 0 W/m2
07:47 2.6 °C 2 °C 1015.2 hPa NW 7.9 km/h 12.9 km/h 96% 0.0 mm 0 W/m2
07:52 2.6 °C 2 °C 1015.2 hPa WNW 6.4 km/h 11.3 km/h 96% 0.0 mm 0 W/m2
07:57 2.7 °C 2 °C 1015.2 hPa West 6.4 km/h 11.3 km/h 95% 0.0 mm 0 W/m2
08:02 2.7 °C 2 °C 1014.9 hPa WSW 13 km/h 20.9 km/h 95% 0.0 mm 0 W/m2
08:07 2.8 °C 2.1 °C 1015.2 hPa West 13 km/h 20.9 km/h 95% 0.0 mm 0 W/m2
08:12 2.8 °C 2.2 °C 1014.9 hPa West 6.4 km/h 11.3 km/h 96% 0.0 mm 5 W/m2
08:17 2.8 °C 2.2 °C 1015.2 hPa NW 6.4 km/h 14.5 km/h 96% 0.0 mm 7 W/m2
08:22 2.9 °C 2.3 °C 1015.2 hPa WSW 16.3 km/h 16.1 km/h 96% 0.0 mm 11 W/m2
08:27 3 °C 2.4 °C 1015.2 hPa West 9.7 km/h 12.9 km/h 96% 0.0 mm 16 W/m2
08:32 3.1 °C 2.5 °C 1015.2 hPa WNW 19.5 km/h 19.3 km/h 96% 0.0 mm 16 W/m2
08:37 3.2 °C 2.6 °C 1015.2 hPa WNW 13 km/h 16.1 km/h 96% 0.0 mm 12 W/m2
08:42 3.2 °C 2.6 °C 1015.2 hPa WNW 13 km/h 16.1 km/h 96% 0.0 mm 14 W/m2
08:47 3.3 °C 2.6 °C 1015.2 hPa WNW 11.1 km/h 17.7 km/h 95% 0.0 mm 23 W/m2
08:52 3.4 °C 2.7 °C 1015.2 hPa West 6.4 km/h 11.3 km/h 95% 0.0 mm 25 W/m2
08:57 3.4 °C 2.7 °C 1015.2 hPa WNW 19.5 km/h 19.3 km/h 95% 0.0 mm 25 W/m2
09:02 3.4 °C 2.7 °C 1015.2 hPa West 4.7 km/h 16.1 km/h 95% 0.0 mm 23 W/m2
09:07 3.4 °C 2.7 °C 1015.2 hPa WNW 1.4 km/h 19.3 km/h 95% 0.0 mm 25 W/m2
09:12 3.5 °C 2.8 °C 1015.2 hPa West 9.7 km/h 16.1 km/h 95% 0.0 mm 21 W/m2
09:17 3.6 °C 2.9 °C 1015.2 hPa WSW 11.1 km/h 17.7 km/h 95% 0.0 mm 30 W/m2
09:22 3.7 °C 3 °C 1015.2 hPa West 19.5 km/h 25.7 km/h 95% 0.0 mm 39 W/m2
09:27 3.8 °C 3.1 °C 1015.2 hPa West 13 km/h 17.7 km/h 95% 0.0 mm 40 W/m2
09:32 3.8 °C 3.1 °C 1015.2 hPa West 17.7 km/h 17.7 km/h 95% 0.0 mm 49 W/m2
09:37 3.9 °C 3.2 °C 1015.2 hPa West 13 km/h 17.7 km/h 95% 0.0 mm 47 W/m2
09:42 3.9 °C 3.2 °C 1015.2 hPa West 9.7 km/h 22.5 km/h 95% 0.0 mm 74 W/m2
Juneau County Weather
Compliments of Weather Underground - 2 mb